| time (UTC) | temp F | wind direction | speed knots | gust knots | rain 1hr in | rain 24hr in | rain mn in | humidity % | barometer mb |
| 20260505064109 | 46 | 135 | 0.0 | 0.0 | 0.00 | 0.00 | 0.00 | 66 | 1011.7 |
| 20260505063108 | 45 | 37 | 1.7 | 3.5 | 0.00 | 0.00 | 0.00 | 70 | 1011.3 |
| 20260505062108 | 45 | 22 | 0.0 | 0.9 | 0.00 | 0.00 | 0.00 | 68 | 1011.6 |
| 20260505060208 | 46 | 337 | 0.0 | 0.0 | 0.00 | 0.00 | 0.00 | 66 | 1011.3 |
| 20260505060110 | 46 | 337 | 0.0 | 0.0 | 0.00 | 0.00 | 0.00 | 66 | 1011.3 |
| 20260505055105 | 46 | 337 | 0.0 | 0.9 | 0.00 | 0.00 | 0.00 | 65 | 1011.4 |
| 20260505054103 | 47 | 337 | 0.0 | 0.0 | 0.00 | 0.00 | 0.00 | 66 | 1011.3 |
| 20260505053124 | 47 | 337 | 0.0 | 0.0 | 0.00 | 0.00 | 0.00 | 64 | 1011.3 |
| 20260505052125 | 47 | 337 | 0.0 | 0.0 | 0.00 | 0.00 | 0.00 | 64 | 1011.4 |
| 20260505051223 | 48 | 337 | 0.0 | 0.0 | 0.00 | 0.00 | 0.00 | 62 | 1011.2 |
| 20260505050222 | 48 | 315 | 0.0 | 0.0 | 0.00 | 0.00 | 0.00 | 61 | 1011.3 |
| 20260505041322 | 50 | 45 | 0.0 | 0.0 | 0.00 | 0.00 | 0.00 | 57 | 1011.2 |
| 20260505040324 | 51 | 45 | 0.9 | 0.9 | 0.00 | 0.00 | 0.00 | 57 | 1011.0 |
| 20260505040224 | 51 | 45 | 0.9 | 0.9 | 0.00 | 0.00 | 0.00 | 57 | 1011.0 |
| 20260505035238 | 51 | 45 | 0.0 | 0.0 | 0.00 | 0.00 | 0.00 | 56 | 1011.1 |
| 20260505034223 | 53 | 45 | 0.0 | 0.9 | 0.00 | 0.00 | 0.00 | 54 | 1010.8 |
| 20260505033222 | 54 | 45 | 0.9 | 0.9 | 0.00 | 0.00 | 0.00 | 53 | 1010.8 |
| 20260505032223 | 55 | 110 | 0.0 | 0.0 | 0.00 | 0.00 | 0.00 | 50 | 1010.5 |
| 20260505032124 | 55 | 112 | 0.0 | 0.0 | 0.00 | 0.00 | 0.00 | 51 | 1010.6 |
| 20260505031125 | 55 | 225 | 0.0 | 0.0 | 0.00 | 0.00 | 0.00 | 49 | 1010.5 |
| 20260505030222 | 56 | 360 | 0.0 | 0.0 | 0.00 | 0.00 | 0.00 | 47 | 1010.3 |
| 20260505024225 | 59 | 135 | 0.0 | 0.0 | 0.00 | 0.00 | 0.00 | 41 | 1010.0 |
| 20260505023222 | 60 | 135 | 0.9 | 2.6 | 0.00 | 0.00 | 0.00 | 40 | 1010.1 |
| 20260505022223 | 61 | 225 | 0.0 | 0.0 | 0.00 | 0.00 | 0.00 | 41 | 1009.8 |
| 20260505020323 | 62 | 270 | 0.0 | 0.9 | 0.00 | 0.00 | 0.00 | 38 | 1009.9 |
| 20260505015325 | 63 | 223 | 0.9 | 2.6 | 0.00 | 0.00 | 0.00 | 37 | 1010.0 |
| 20260505013424 | 65 | 184 | 2.6 | 5.2 | 0.00 | 0.00 | 0.00 | 37 | 1009.8 |
| 20260505012522 | 65 | 209 | 3.5 | 8.7 | 0.00 | 0.00 | 0.00 | 37 | 1010.0 |
| 20260505011522 | 65 | 208 | 2.6 | 7.0 | 0.00 | 0.00 | 0.00 | 35 | 1010.0 |
| 20260505010523 | 66 | 207 | 2.6 | 7.0 | 0.00 | 0.00 | 0.00 | 34 | 1010.1 |
| 20260505005524 | 67 | 205 | 3.5 | 8.7 | 0.00 | 0.00 | 0.00 | 34 | 1010.0 |
| 20260505004623 | 67 | 197 | 3.5 | 6.1 | 0.00 | 0.00 | 0.00 | 33 | 1010.1 |
| 20260505003722 | 68 | 195 | 2.6 | 5.2 | 0.00 | 0.00 | 0.00 | 33 | 1009.9 |
| 20260505002722 | 68 | 174 | 1.7 | 3.5 | 0.00 | 0.00 | 0.00 | 33 | 1010.2 |
| 20260505001724 | 68 | 187 | 2.6 | 8.7 | 0.00 | 0.00 | 0.00 | 32 | 1010.2 |
| 20260505000822 | 68 | 163 | 0.9 | 2.6 | 0.00 | 0.00 | 0.00 | 32 | 1010.4 |
| 20260504235825 | 69 | 158 | 6.1 | 9.6 | 0.00 | 0.00 | 0.00 | 31 | 1010.4 |
| 20260504234922 | 70 | 157 | 1.7 | 4.3 | 0.00 | 0.00 | 0.00 | 30 | 1010.2 |
| 20260504233941 | 71 | 155 | 5.2 | 7.8 | 0.00 | 0.00 | 0.00 | 28 | 1010.2 |
| 20260504232925 | 71 | 165 | 3.5 | 7.0 | 0.00 | 0.00 | 0.00 | 27 | 1010.1 |
| 20260504231924 | 70 | 176 | 2.6 | 6.1 | 0.00 | 0.00 | 0.00 | 29 | 1010.1 |
| 20260504230924 | 69 | 163 | 2.6 | 5.2 | 0.00 | 0.00 | 0.00 | 28 | 1010.0 |
| 20260504225923 | 70 | 193 | 5.2 | 11.3 | 0.00 | 0.00 | 0.00 | 27 | 1010.0 |
| 20260504224923 | 71 | 187 | 1.7 | 4.3 | 0.00 | 0.00 | 0.00 | 27 | 1010.0 |
| 20260504223924 | 72 | 159 | 4.3 | 7.8 | 0.00 | 0.00 | 0.00 | 27 | 1010.0 |
| 20260504222922 | 72 | 218 | 2.6 | 4.3 | 0.00 | 0.00 | 0.00 | 25 | 1010.0 |
| 20260504221924 | 75 | 212 | 3.5 | 5.2 | 0.00 | 0.00 | 0.00 | 24 | 1010.0 |
| 20260504221022 | 78 | 221 | 1.7 | 3.5 | 0.00 | 0.00 | 0.00 | 21 | 1010.2 |
| 20260504220023 | 78 | 242 | 0.9 | 3.5 | 0.00 | 0.00 | 0.00 | 20 | 1009.8 |
| 20260504215023 | 77 | 211 | 1.7 | 5.2 | 0.00 | 0.00 | 0.00 | 20 | 1010.0 |
| 20260504214024 | 77 | 222 | 1.7 | 3.5 | 0.00 | 0.00 | 0.00 | 21 | 1010.2 |
| 20260504213123 | 76 | 277 | 1.7 | 4.3 | 0.00 | 0.00 | 0.00 | 22 | 1010.4 |
| 20260504212123 | 77 | 232 | 0.9 | 3.5 | 0.00 | 0.00 | 0.00 | 23 | 1010.6 |
| 20260504211222 | 77 | 251 | 0.9 | 4.3 | 0.00 | 0.00 | 0.00 | 23 | 1010.4 |
| 20260504210224 | 76 | 216 | 1.7 | 4.3 | 0.00 | 0.00 | 0.00 | 23 | 1010.8 |
| 20260504205225 | 76 | 270 | 2.6 | 6.1 | 0.00 | 0.00 | 0.00 | 24 | 1010.8 |
| 20260504203422 | 76 | 219 | 0.9 | 1.7 | 0.00 | 0.00 | 0.00 | 25 | 1010.8 |
| 20260504201423 | 74 | 200 | 2.6 | 6.1 | 0.00 | 0.00 | 0.00 | 26 | 1010.9 |
| 20260504194424 | 73 | 262 | 1.7 | 7.8 | 0.00 | 0.00 | 0.00 | 26 | 1011.2 |
| 20260504190424 | 72 | 250 | 1.7 | 5.2 | 0.00 | 0.00 | 0.00 | 27 | 1011.7 |
| 20260504185423 | 72 | 272 | 3.5 | 6.1 | 0.00 | 0.00 | 0.00 | 27 | 1011.7 |
| 20260504184423 | 72 | 289 | 2.6 | 6.1 | 0.00 | 0.00 | 0.00 | 27 | 1011.7 |
| 20260504183421 | 72 | 250 | 1.7 | 5.2 | 0.00 | 0.00 | 0.00 | 27 | 1012.0 |
| 20260504182424 | 71 | 210 | 1.7 | 4.3 | 0.00 | 0.00 | 0.00 | 28 | 1012.1 |
| 20260504181425 | 72 | 303 | 1.7 | 4.3 | 0.00 | 0.00 | 0.00 | 28 | 1012.3 |
| 20260504180424 | 71 | 297 | 0.9 | 2.6 | 0.00 | 0.00 | 0.00 | 28 | 1012.4 |
| 20260504175423 | 70 | 278 | 0.9 | 2.6 | 0.00 | 0.00 | 0.00 | 30 | 1012.6 |
| 20260504174424 | 69 | 109 | 0.9 | 2.6 | 0.00 | 0.00 | 0.00 | 31 | 1012.7 |
| 20260504174325 | 69 | 134 | 0.9 | 3.5 | 0.00 | 0.00 | 0.00 | 31 | 1012.7 |
| 20260504173324 | 68 | 173 | 0.0 | 1.7 | 0.00 | 0.00 | 0.00 | 32 | 1012.9 |
| 20260504171323 | 65 | 87 | 0.0 | 1.7 | 0.00 | 0.00 | 0.00 | 31 | 1013.2 |
| 20260504170323 | 64 | 360 | 1.7 | 2.6 | 0.00 | 0.00 | 0.00 | 32 | 1013.5 |
| 20260504150722 | 51 | 157 | 0.0 | 1.7 | 0.00 | 0.00 | 0.00 | 46 | 1014.7 |
| 20260504140723 | 40 | 45 | 0.0 | 0.0 | 0.00 | 0.00 | 0.00 | 71 | 1014.8 |
| 20260504081823 | 38 | 22 | 0.0 | 0.0 | 0.00 | 0.00 | 0.00 | 69 | 1013.8 |
| 20260504080823 | 39 | 22 | 0.0 | 0.0 | 0.00 | 0.00 | 0.00 | 66 | 1013.9 |